Macomb, IL

11:39 AM CDT on September 24, 2017 (GMT -0500)
Macomb Municipal

Weather History for KMQB - February, 2014

Change the Weather History Date:

Wednesday, February 5, 2014

  Actual Average (KBRL) Record (KBRL)
Temperature  
Mean Temperature 8 °F -  
Max Temperature 18 °F 32 °F 62 °F (1946)
Min Temperature -4 °F 18 °F -15 °F (1979)
Degree Days  
Heating Degree Days 57    
Moisture  
Dew Point 8 °F    
Average Humidity 85    
Maximum Humidity 94    
Minimum Humidity 77    
Precipitation  
Precipitation 0.00 in - - ()
Sea Level Pressure  
Sea Level Pressure 30.35 in    
Wind  
Wind Speed 18 mph (NW)    
Max Wind Speed 24 mph    
Max Gust Speed 31 mph    
Visibility 5 miles    
Events Snow    
Averages and records for this station are not official NWS values.
T = Trace of Precipitation, MM = Missing Value Source: NWS Daily Summary

Daily Weather History Graph

Daily Weather History Graph

Search for Another Location

Airport or City:

Trip Planner

Search our weather history database for the weather conditions in past years. The results will help you decide how hot, cold, wet, or windy it might be!

Date:

Astronomy

Feb. 05, 2014 Rise Set
Actual Time 7:08 AM CST 5:25 PM CST
Civil Twilight 6:39 AM CST 5:54 PM CST
Nautical Twilight 6:07 AM CST 6:26 PM CST
Astronomical Twilight 5:35 AM CST 6:58 PM CST
Moon 10:21 AM CST (2/5) No Moon Set
Length of Visible Light 11h 14m
Length of Day
10h 17m
Waxing Crescent, 39% of the Moon is Illuminated
Feb 5
Waxing Crescent
Feb 6
First Quarter
Feb 14
Full
Feb 22
Last Quarter
Mar 1
New

Hourly Weather History & Observations

Time (CST) Temp. Windchill Dew Point Humidity Pressure Visibility Wind Dir Wind Speed Gust Speed Precip Events Conditions
12:15 AM 17.8 °F 1.5 °F 16.0 °F 93% 30.10 in 1.5 mi North 19.6 mph 24.2 mph N/A Snow Light Snow
12:35 AM 17.6 °F 1.7 °F 16.2 °F 94% 30.09 in 0.8 mi North 18.4 mph - N/A Snow Snow
12:55 AM 17.6 °F 1.3 °F 16.2 °F 94% 30.08 in 1.2 mi North 19.6 mph - N/A Snow Light Snow
1:15 AM 18.0 °F 0.9 °F 16.3 °F 93% 30.08 in 1.2 mi North 21.9 mph 26.5 mph N/A Snow Light Snow
1:35 AM 18.1 °F 2.0 °F 16.5 °F 93% 30.07 in 1.2 mi North 19.6 mph 27.6 mph N/A Snow Light Snow
1:55 AM 18.0 °F 1.3 °F 16.3 °F 93% 30.07 in 1.8 mi North 20.7 mph - N/A Snow Light Snow
2:15 AM 17.6 °F 1.3 °F 15.8 °F 93% 30.08 in 2.5 mi North 19.6 mph 26.5 mph N/A Snow Light Snow
2:35 AM 17.6 °F 1.3 °F 15.8 °F 93% 30.08 in 3.0 mi North 19.6 mph - N/A Snow Light Snow
2:55 AM 17.8 °F 1.1 °F 15.6 °F 91% 30.08 in 3.0 mi North 20.7 mph - N/A   Clear
3:15 AM 18.1 °F 1.6 °F 15.8 °F 91% 30.08 in 3.0 mi North 20.7 mph - N/A   Scattered Clouds
3:35 AM 18.0 °F 3.1 °F 15.8 °F 91% 30.09 in 4.0 mi North 16.1 mph - N/A Snow Light Snow
3:55 AM 18.0 °F 2.2 °F 15.8 °F 91% 30.10 in 4.0 mi North 18.4 mph - N/A Snow Light Snow
4:15 AM 18.1 °F 2.0 °F 16.2 °F 92% 30.11 in 4.0 mi NNW 19.6 mph - N/A Snow Light Snow
4:35 AM 18.5 °F 2.4 °F 16.5 °F 92% 30.11 in 3.0 mi North 19.6 mph 25.3 mph N/A Snow Light Snow
4:55 AM 18.5 °F 1.6 °F 16.7 °F 93% 30.12 in 3.0 mi North 21.9 mph - N/A Snow Light Snow
5:15 AM 18.3 °F 2.2 °F 16.5 °F 93% 30.13 in 2.5 mi NNW 19.6 mph 25.3 mph N/A Snow Light Snow
5:35 AM 18.3 °F 1.4 °F 16.3 °F 92% 30.15 in 2.5 mi NNW 21.9 mph 27.6 mph N/A Snow Light Snow
5:55 AM 18.0 °F 1.7 °F 15.8 °F 91% 30.16 in 3.0 mi NNW 19.6 mph 28.8 mph N/A Snow Light Snow
6:15 AM 17.6 °F 0.9 °F 15.3 °F 91% 30.18 in 4.0 mi NNW 20.7 mph 27.6 mph N/A   Scattered Clouds
6:35 AM 17.6 °F 0.5 °F 15.3 °F 91% 30.20 in 3.0 mi NNW 21.9 mph 27.6 mph N/A Snow Light Snow
6:55 AM 17.6 °F 0.9 °F 15.4 °F 91% 30.21 in 2.5 mi NNW 20.7 mph - N/A Snow Light Snow
7:15 AM 17.1 °F 1.5 °F 14.7 °F 91% 30.23 in 3.0 mi NW 17.3 mph - N/A Snow Light Snow
7:35 AM 16.7 °F 0.1 °F 14.5 °F 91% 30.24 in 1.5 mi NW 19.6 mph - N/A Snow Light Snow
7:55 AM 16.5 °F -1.0 °F 14.0 °F 90% 30.25 in 1.5 mi NNW 21.9 mph - N/A Snow Light Snow
8:15 AM 16.2 °F -1.0 °F 13.5 °F 89% 30.27 in 2.0 mi NW 20.7 mph - N/A Snow Light Snow
8:35 AM 15.8 °F -1.5 °F 13.1 °F 89% 30.28 in 2.0 mi NW 20.7 mph 26.5 mph N/A Snow Light Snow
8:55 AM 15.6 °F -2.2 °F 12.7 °F 88% 30.30 in 1.5 mi NW 21.9 mph 27.6 mph N/A Snow Light Snow
9:15 AM 15.4 °F -3.2 °F 12.2 °F 87% 30.31 in 2.5 mi NW 24.2 mph 31.1 mph N/A Snow Light Snow
9:35 AM 14.9 °F -3.1 °F 12.0 °F 88% 30.33 in 0.8 mi NW 21.9 mph 29.9 mph N/A Snow Light Snow
9:55 AM 14.9 °F -3.5 °F 12.0 °F 88% 30.34 in 1.2 mi NW 23.0 mph 26.5 mph N/A Snow Light Snow
10:35 AM 14.5 °F -4.0 °F 10.9 °F 86% 30.36 in 1.8 mi NW 23.0 mph 28.8 mph N/A Snow Light Snow
10:55 AM 14.5 °F -2.7 °F 10.8 °F 85% 30.37 in 1.0 mi NW 19.6 mph 27.6 mph N/A Snow Light Snow
11:15 AM 14.5 °F -4.4 °F 10.4 °F 84% 30.38 in 0.5 mi NW 24.2 mph 28.8 mph N/A Snow Light Snow
11:35 AM 14.2 °F -3.6 °F 10.2 °F 84% 30.38 in 2.0 mi NW 20.7 mph 24.2 mph N/A Snow Light Snow
11:55 AM 14.0 °F -3.9 °F 10.2 °F 85% 30.38 in 0.8 mi NW 20.7 mph 27.6 mph N/A Snow Light Snow
12:15 PM 14.2 °F -3.2 °F 9.9 °F 83% 30.40 in 0.5 mi NW 19.6 mph - N/A Snow Light Snow
12:35 PM 14.2 °F -3.6 °F 9.5 °F 82% 30.39 in 0.2 mi NW 20.7 mph 26.5 mph N/A Snow Heavy Snow
12:55 PM 14.2 °F -2.3 °F 9.5 °F 82% 30.40 in 0.5 mi NW 17.3 mph 23.0 mph N/A Snow Light Snow
1:15 PM 14.4 °F -2.0 °F 9.9 °F 82% 30.40 in 1.5 mi NW 17.3 mph - N/A Snow Light Snow
1:35 PM 14.0 °F -2.5 °F 9.5 °F 82% 30.40 in 0.5 mi NW 17.3 mph 21.9 mph N/A Snow Light Snow
1:55 PM 13.1 °F -4.2 °F 8.6 °F 82% 30.41 in 1.0 mi NW 18.4 mph - N/A Snow Light Snow
2:15 PM 12.7 °F -4.1 °F 8.1 °F 82% 30.41 in 2.0 mi NW 17.3 mph - N/A   Haze
2:35 PM 12.6 °F -4.4 °F 7.5 °F 80% 30.43 in 7.0 mi WNW 17.3 mph - N/A   Clear
2:55 PM 12.2 °F -5.3 °F 7.3 °F 81% 30.44 in 10.0 mi WNW 18.4 mph - N/A   Clear
3:15 PM 11.8 °F -5.3 °F 6.6 °F 80% 30.44 in 5.0 mi NW 17.3 mph - N/A   Haze
3:35 PM 11.5 °F -5.8 °F 6.4 °F 80% 30.45 in 10.0 mi NW 17.3 mph - N/A   Clear
3:55 PM 11.3 °F -6.0 °F 5.7 °F 78% 30.46 in 10.0 mi NW 17.3 mph 21.9 mph N/A   Clear
4:15 PM 10.9 °F -5.9 °F 5.0 °F 77% 30.47 in 10.0 mi NW 16.1 mph - N/A   Clear
4:35 PM 10.2 °F -6.3 °F 5.0 °F 79% 30.48 in 10.0 mi NW 15.0 mph - N/A   Clear
4:55 PM 9.5 °F -6.6 °F 4.6 °F 81% 30.49 in 10.0 mi NW 13.8 mph - N/A   Scattered Clouds
5:15 PM 10.2 °F -6.3 °F 5.4 °F 81% 30.50 in 10.0 mi NW 15.0 mph - N/A   Overcast
5:35 PM 10.0 °F -4.5 °F 5.0 °F 80% 30.50 in 10.0 mi NW 11.5 mph - N/A Snow Light Snow
5:55 PM 9.7 °F -7.0 °F 4.8 °F 81% 30.52 in 10.0 mi NW 15.0 mph - N/A Snow Light Snow
6:15 PM 8.4 °F -7.9 °F 3.6 °F 81% 30.52 in 10.0 mi NW 13.8 mph - N/A   Overcast
6:35 PM 6.8 °F -9.3 °F 1.8 °F 80% 30.53 in 10.0 mi NW 12.7 mph - N/A   Scattered Clouds
6:55 PM 5.5 °F -10.2 °F 0.9 °F 81% 30.53 in 10.0 mi NW 11.5 mph - N/A   Clear
7:15 PM 4.6 °F -9.5 °F 0.1 °F 82% 30.54 in 10.0 mi NW 9.2 mph - N/A   Clear
7:35 PM 4.8 °F -10.2 °F 0.5 °F 82% 30.54 in 10.0 mi WNW 10.4 mph - N/A   Scattered Clouds
7:55 PM 4.5 °F -11.5 °F -0.2 °F 81% 30.55 in 10.0 mi WNW 11.5 mph - N/A   Scattered Clouds
8:15 PM 3.6 °F -12.6 °F -1.1 °F 81% 30.55 in 10.0 mi NW 11.5 mph - N/A   Clear
8:35 PM 3.6 °F -13.4 °F -1.3 °F 80% 30.55 in 10.0 mi NW 12.7 mph - N/A   Clear
8:55 PM 2.7 °F -14.5 °F -2.4 °F 79% 30.55 in 10.0 mi NW 12.7 mph - N/A   Clear
9:15 PM 2.1 °F -13.6 °F -3.1 °F 79% 30.56 in 10.0 mi NW 10.4 mph - N/A   Clear
9:35 PM 1.4 °F -15.3 °F -4.0 °F 78% 30.56 in 10.0 mi NW 11.5 mph - N/A   Clear
9:55 PM 1.0 °F -15.8 °F -4.2 °F 79% 30.56 in 10.0 mi NW 11.5 mph - N/A   Clear
10:15 PM 0.9 °F -15.1 °F -4.4 °F 79% 30.56 in 10.0 mi NW 10.4 mph - N/A   Clear
10:35 PM 0.9 °F -13.1 °F -4.7 °F 77% 30.56 in 10.0 mi NW 8.1 mph - N/A   Clear
10:55 PM -0.4 °F -15.7 °F -5.6 °F 79% 30.57 in 10.0 mi NW 9.2 mph - N/A   Clear
11:15 PM -1.1 °F -15.5 °F -6.2 °F 79% 30.56 in 10.0 mi WNW 8.1 mph - N/A   Clear
11:35 PM -2.4 °F -15.8 °F -7.4 °F 79% 30.56 in 10.0 mi West 6.9 mph - N/A   Clear
11:55 PM -4.4 °F -20.6 °F -9.4 °F 79% 30.56 in 10.0 mi West 9.2 mph - N/A   Clear